Wind_Speed
44 43 43 43 43 44 42 41 41 41 40 40 39 39 39 38 38 37 37 37 36 36 36 36 37 37 37 38 38 38 39 39 39 39 39 39 39 39
45 45 44 44 43 44 44 42 41 41 41 40 41 40 41 40 40 40 39 39 39 39 39 39 39 39 39 40 40 40 41 41 41 41 41 41 41 41
48 47 46 46 45 45 45 44 44 43 42 41 42 41 42 42 42 41 41 42 41 41 40 40 41 41 41 42 42 42 43 43 43 43 43 43 44 44
48 48 47 48 48 47 46 46 45 45 44 43 43 43 43 43 43 43 43 43 43 42 42 42 43 43 44 44 44 44 44 45 46 45 45 45 45 46
50 50 50 49 49 49 48 48 46 45 44 43 44 43 43 45 45 44 44 44 43 43 43 44 44 44 44 44 45 45 46 47 47 47 47 47 47 47
51 52 51 51 51 51 51 50 49 48 46 45 46 45 45 46 46 46 45 45 45 45 45 45 45 45 45 45 46 46 47 48 48 48 48 48 49 49
53 53 52 52 53 53 52 51 50 50 49 48 48 46 46 46 47 46 46 46 46 45 45 45 45 46 46 46 47 47 47 48 49 49 50 50 50 50
53 54 54 53 53 54 54 52 51 50 50 50 49 48 46 46 47 47 46 46 46 46 46 46 46 47 47 48 48 49 49 50 50 51 51 51 51 52
54 54 54 54 54 54 55 53 52 51 50 50 50 48 47 46 46 47 47 47 47 47 48 48 49 49 49 49 50 50 50 51 51 52 52 52 53 53
54 54 54 54 54 55 56 55 53 52 52 52 51 50 49 48 49 49 49 49 49 49 49 49 49 50 50 50 50 51 51 52 52 53 53 53 53 53
53 53 54 54 54 55 56 55 54 53 53 53 53 53 52 51 52 51 51 51 50 50 50 50 49 50 50 50 51 52 52 53 53 52 52 53 53 53
52 52 53 53 53 55 55 55 54 53 53 52 52 53 54 53 53 52 52 53 53 52 52 52 52 52 52 52 53 53 53 52 52 52 53 53 53 53
50 51 51 51 52 54 54 53 53 53 53 53 53 53 53 53 53 53 53 53 53 53 53 54 53 53 54 53 53 53 53 53 54 54 54 54 54 53
48 48 48 49 50 52 52 51 52 53 53 53 53 53 53 52 52 52 53 53 53 53 54 54 54 54 55 54 54 53 54 54 53 54 54 54 54 53
46 46 46 47 48 49 50 50 51 52 53 53 53 53 53 52 52 52 52 53 53 53 53 53 53 54 54 54 54 54 54 54 54 54 54 54 54 54
44 44 45 46 47 48 49 49 50 51 52 52 52 52 52 51 52 52 52 53 53 53 53 53 53 53 53 53 54 54 53 53 53 53 53 53 53 53
44 44 45 45 46 47 47 48 49 49 50 51 51 52 52 52 52 52 53 53 53 52 52 52 53 53 52 52 52 51 51 52 52 52 52 52 52 52
42 42 43 44 45 46 47 48 49 49 50 50 50 51 51 51 51 52 51 51 51 51 51 52 52 53 53 52 52 51 51 51 52 52 53 52 51 49
41 41 42 43 44 44 45 46 47 48 49 49 50 50 49 50 50 50 50 50 50 50 51 52 52 53 52 52 52 52 52 52 52 52 52 52 50 48
40 41 42 43 44 44 44 44 45 46 47 47 47 48 48 48 48 48 48 49 50 50 50 51 51 51 52 51 51 51 51 52 52 52 52 51 49 48
39 40 41 42 43 43 43 43 44 44 45 46 46 46 46 47 47 47 47 48 49 49 49 49 49 50 50 51 51 51 51 51 52 51 50 49 47 47
37 38 40 41 41 41 42 42 42 43 43 43 44 45 45 46 46 46 46 47 47 47 47 48 48 48 48 49 49 49 49 49 48 47 47 47 46 46
36 37 38 38 39 40 40 40 40 40 41 41 42 43 44 43 43 43 44 44 44 45 45 45 46 46 47 47 47 47 47 46 45 44 44 44 45 44
Wind_Direction
247 247 249 251 250 249 250 250 251 252 252 253 254 255 256 257 258 260 263 265 267 269 272 275 276 278 280 281 283 284 286 287 288 289 290 291 291 293
248 249 249 250 250 250 249 249 251 253 252 253 254 255 256 257 259 261 262 265 267 268 271 274 276 278 279 281 282 283 285 286 287 287 288 289 291 291
248 249 250 251 251 251 250 250 252 253 254 254 256 255 256 258 260 262 262 264 266 268 271 273 275 277 279 281 282 283 284 285 285 286 287 288 290 290
248 249 250 251 251 250 250 251 253 255 255 255 257 256 257 259 261 262 264 265 266 268 270 273 275 277 278 280 281 283 283 284 285 287 288 288 289 290
248 249 250 251 251 250 250 251 253 255 255 256 257 257 259 260 261 263 265 266 266 268 270 273 275 277 278 279 281 282 283 283 285 286 287 288 288 289
247 249 250 250 251 251 251 252 253 255 255 256 258 258 259 261 263 264 266 266 267 269 271 273 274 276 277 279 280 281 282 283 284 285 286 287 288 288
247 248 250 250 250 251 251 252 254 254 255 256 258 259 259 260 262 264 266 267 268 270 271 273 274 276 277 278 279 280 281 283 283 285 286 286 287 288
247 248 249 250 250 250 250 251 253 254 254 256 258 259 260 262 262 263 265 268 269 271 273 274 275 276 277 278 279 280 281 282 284 285 286 286 287 288
247 248 249 250 250 249 249 250 252 254 255 256 258 259 261 262 263 264 266 268 269 270 272 273 275 276 277 278 279 281 282 283 284 286 286 286 287 288
247 248 249 250 250 250 250 250 252 254 255 256 258 260 261 263 264 265 266 269 270 270 272 273 275 275 276 277 279 281 282 283 285 286 286 287 288 288
247 248 250 251 251 251 251 252 253 254 255 256 258 259 261 263 265 266 267 268 269 270 270 272 274 275 276 277 278 280 282 283 285 286 286 287 288 288
248 249 250 251 251 251 251 252 253 254 255 256 258 259 261 262 264 266 268 269 270 270 271 273 275 275 276 277 279 280 282 283 284 285 287 288 288 288
248 250 251 251 251 251 252 253 254 255 257 257 257 258 260 263 264 266 267 269 270 270 271 273 274 276 277 278 279 280 281 282 283 284 286 288 288 288
248 249 249 250 251 252 252 253 255 256 257 257 257 259 261 263 265 266 267 268 269 271 272 273 274 276 277 278 279 280 281 282 283 284 286 287 287 287
248 250 251 251 251 251 252 253 255 256 256 256 257 259 262 263 264 266 266 267 269 272 273 274 275 276 278 279 280 281 281 282 284 285 286 286 287 287
250 252 252 252 252 252 253 254 256 256 257 257 258 260 262 263 264 265 266 268 269 271 273 274 275 277 279 281 282 282 283 283 284 286 286 287 287 287
252 252 253 253 253 253 254 255 256 257 258 258 259 261 262 264 265 266 267 268 270 271 272 273 275 276 278 281 282 283 283 284 285 285 286 287 287 287
254 254 254 253 254 254 256 256 256 257 258 259 260 262 263 264 266 267 267 268 270 271 272 273 274 276 278 279 281 282 283 284 284 285 287 287 287 286
253 253 253 252 253 254 255 256 257 257 258 260 261 262 264 265 266 267 267 268 270 271 273 274 275 277 278 278 280 282 283 283 284 286 287 287 286 285
254 253 252 252 253 255 256 257 257 258 259 260 261 262 263 265 266 267 268 269 270 272 273 274 276 277 278 279 280 282 283 284 285 286 286 285 284 284
255 254 253 254 255 257 257 258 258 258 259 260 261 262 263 265 267 268 269 270 271 272 273 275 276 277 278 279 280 282 283 284 285 285 285 284 283 282
256 255 255 256 257 258 258 258 258 258 258 260 261 262 264 266 267 268 269 270 272 273 274 275 275 276 277 279 281 282 283 283 283 284 285 285 285 284
256 256 256 257 258 258 258 257 257 257 259 260 262 263 265 266 266 267 268 270 272 274 275 275 275 276 277 278 280 281 282 282 282 283 284 285 286 287
Height
5719 5723 5726 5729 5732 5735 5739 5742 5746 5750 5753 5756 5758 5761 5763 5765 5767 5769 5770 5771 5772 5772 5772 5772 5771 5771 5770 5768 5767 5766 5764 5762 5760 5758 5756 5754 5751 5749
5708 5712 5716 5719 5722 5725 5729 5732 5735 5739 5743 5746 5748 5750 5753 5755 5757 5759 5760 5760 5761 5762 5762 5762 5762 5761 5760 5759 5757 5756 5754 5752 5750 5748 5746 5743 5741 5738
5698 5701 5705 5709 5711 5715 5718 5721 5725 5729 5732 5736 5737 5739 5742 5745 5746 5748 5749 5750 5750 5751 5751 5751 5751 5750 5749 5748 5746 5745 5743 5741 5739 5737 5735 5732 5730 5727
5686 5690 5693 5697 5700 5704 5707 5711 5714 5717 5721 5724 5727 5729 5731 5734 5735 5737 5738 5739 5740 5740 5740 5740 5739 5739 5738 5736 5735 5733 5732 5730 5728 5726 5723 5721 5718 5715
5674 5678 5682 5685 5688 5692 5696 5699 5702 5706 5709 5713 5715 5718 5720 5722 5724 5725 5727 5728 5728 5729 5729 5729 5728 5727 5726 5725 5723 5721 5720 5718 5716 5714 5711 5709 5706 5703
5661 5665 5669 5673 5676 5680 5683 5687 5691 5694 5698 5701 5703 5705 5708 5710 5712 5714 5715 5716 5717 5717 5717 5717 5716 5715 5714 5713 5711 5709 5707 5705 5703 5701 5699 5696 5693 5690
5647 5651 5655 5659 5663 5667 5671 5675 5678 5682 5685 5688 5691 5693 5696 5698 5700 5702 5703 5704 5705 5705 5705 5705 5705 5704 5702 5700 5699 5697 5695 5693 5691 5688 5685 5683 5680 5677
5634 5638 5642 5646 5650 5654 5658 5662 5666 5669 5673 5676 5679 5681 5684 5686 5688 5690 5691 5692 5694 5694 5693 5693 5692 5691 5689 5688 5686 5684 5682 5680 5678 5675 5672 5669 5666 5663
5620 5624 5628 5632 5636 5640 5644 5649 5652 5656 5659 5663 5666 5669 5672 5674 5676 5677 5678 5678 5680 5680 5680 5680 5679 5678 5677 5675 5673 5671 5669 5667 5664 5661 5658 5655 5652 5649
5606 5610 5614 5618 5622 5626 5631 5635 5639 5642 5646 5650 5654 5656 5658 5660 5662 5663 5664 5665 5666 5666 5665 5666 5666 5665 5664 5662 5660 5658 5656 5653 5650 5647 5644 5641 5638 5634
5592 5597 5601 5605 5609 5613 5617 5622 5626 5629 5632 5636 5640 5642 5644 5646 5648 5649 5650 5650 5652 5653 5652 5652 5652 5651 5651 5649 5647 5644 5642 5639 5636 5633 5630 5627 5624 5620
5579 5583 5588 5592 5595 5598 5603 5608 5612 5615 5619 5622 5625 5628 5630 5632 5633 5634 5635 5636 5637 5639 5639 5638 5637 5636 5637 5636 5633 5630 5627 5625 5622 5619 5616 5612 5609 5606
5566 5570 5574 5578 5582 5585 5590 5595 5599 5602 5605 5608 5611 5614 5616 5618 5619 5620 5621 5621 5622 5623 5624 5623 5622 5621 5619 5620 5619 5616 5613 5611 5608 5605 5602 5599 5595 5592
5554 5558 5562 5565 5568 5572 5576 5581 5584 5587 5590 5594 5597 5600 5602 5604 5605 5606 5607 5607 5607 5608 5608 5607 5606 5605 5604 5603 5603 5602 5599 5596 5593 5590 5587 5584 5581 5577
5541 5545 5549 5552 5555 5559 5563 5567 5570 5573 5576 5580 5583 5586 5588 5590 5591 5591 5592 5592 5592 5592 5592 5591 5591 5589 5588 5587 5587 5586 5584 5582 5578 5575 5572 5569 5566 5563
5529 5533 5536 5539 5543 5547 5550 5553 5556 5559 5562 5566 5569 5571 5573 5575 5576 5576 5577 5577 5578 5579 5578 5576 5575 5574 5573 5572 5570 5569 5567 5566 5564 5560 5556 5553 5551 5547
5517 5521 5524 5527 5531 5534 5537 5540 5543 5545 5548 5552 5554 5557 5559 5560 5561 5562 5562 5563 5563 5564 5564 5563 5561 5559 5558 5557 5555 5554 5552 5550 5547 5545 5542 5539 5536 5533
5506 5509 5512 5515 5518 5522 5524 5527 5529 5532 5535 5537 5540 5542 5544 5545 5547 5547 5548 5548 5549 5549 5549 5549 5547 5545 5544 5543 5541 5539 5537 5535 5532 5530 5526 5523 5521 5519
5494 5497 5500 5503 5506 5509 5511 5514 5516 5518 5521 5523 5525 5528 5529 5531 5532 5533 5533 5534 5534 5534 5534 5533 5532 5530 5530 5530 5528 5524 5522 5520 5517 5515 5512 5508 5506 5504
5483 5486 5489 5492 5494 5496 5499 5501 5503 5505 5507 5509 5511 5513 5515 5516 5518 5518 5519 5519 5520 5520 5519 5518 5517 5515 5514 5514 5513 5512 5507 5504 5502 5499 5497 5493 5491 5489
5472 5475 5477 5480 5482 5484 5486 5488 5490 5492 5494 5496 5498 5500 5501 5502 5503 5504 5505 5505 5505 5505 5505 5504 5503 5501 5499 5498 5497 5496 5493 5489 5486 5483 5481 5479 5477 5476
5462 5464 5466 5468 5470 5472 5474 5476 5478 5479 5481 5483 5485 5486 5487 5489 5489 5490 5490 5491 5491 5490 5490 5489 5488 5486 5485 5484 5482 5481 5479 5476 5472 5469 5466 5464 5461 5460
5452 5453 5455 5457 5459 5461 5462 5464 5466 5467 5469 5471 5472 5473 5474 5475 5476 5477 5477 5477 5477 5477 5476 5475 5474 5472 5471 5469 5468 5466 5464 5462 5459 5457 5454 5451 5449 5446